Weather History for Alva, OK

Change the Weather History Date:

Friday, February 8, 2013

  Actual Average Record
Temperature  
Mean Temperature 38 °F -  
Max Temperature 51 °F 47 °F 77 °F (1954)
Min Temperature 24 °F 23 °F -1 °F (1971)
Degree Days  
Heating Degree Days 28    
Moisture  
Dew Point 26 °F    
Average Humidity 66    
Maximum Humidity 93    
Minimum Humidity 35    
Precipitation  
Precipitation 0.00 in - - ()
Sea Level Pressure  
Sea Level Pressure 30.21 in    
Wind  
Wind Speed 7 mph (ESE)    
Max Wind Speed 16 mph    
Max Gust Speed 16 mph    
Visibility 10 miles    
Events      
Averages and records for this station are not official NWS values.
T = Trace of Precipitation, MM = Missing Value Source: NWS Daily Summary

Daily Weather History Graph

Daily Weather History Graph

Search for Another Location

Airport:

Trip Planner

Search our weather history database for the weather conditions in past years. The results will help you decide how hot, cold, wet, or windy it might be!

Date:

Astronomy

Feb. 08, 2013 Rise Set
Actual Time 7:30 AM CST 6:08 PM CST
Civil Twilight 7:03 AM CST 6:34 PM CST
Nautical Twilight 6:32 AM CST 7:05 PM CST
Astronomical Twilight 6:02 AM CST 7:35 PM CST
Moon 5:58 AM CST (2/8) 4:43 PM CST (2/8)
Length of Visible Light 11h 31m
Length of Day
10h 37m
Waning Crescent, 3% of the Moon is Illuminated
Feb 8
Waning Crescent
Feb 10
New
Feb 17
First Quarter
Feb 25
Full
Mar 4
Last Quarter

Hourly Weather History & Observations

Time (CST) Temp. Windchill Dew Point Humidity Pressure Visibility Wind Dir Wind Speed Gust Speed Precip Events Conditions
12:10 AM 35.6 °F 29.9 °F 24.8 °F 65% 30.22 in 10.0 mi North 6.9 mph - N/A   Clear
12:30 AM 35.6 °F 32.8 °F 24.8 °F 65% 30.22 in 10.0 mi North 3.5 mph - N/A   Clear
12:50 AM 30.2 °F 24.3 °F 23.0 °F 75% 30.23 in 10.0 mi NW 5.8 mph - N/A   Clear
1:10 AM 32.0 °F 26.4 °F 24.8 °F 75% 30.23 in 10.0 mi North 5.8 mph - N/A   Clear
1:30 AM 32.0 °F 27.5 °F 24.8 °F 75% 30.23 in 10.0 mi NNW 4.6 mph - N/A   Clear
1:50 AM 28.4 °F 23.3 °F 23.0 °F 80% 30.24 in 10.0 mi NNW 4.6 mph - N/A   Clear
2:10 AM 28.4 °F 24.6 °F 23.0 °F 80% 30.24 in 10.0 mi NW 3.5 mph - N/A   Clear
2:30 AM 30.2 °F 25.4 °F 24.8 °F 80% 30.24 in 10.0 mi NNW 4.6 mph - N/A   Clear
2:50 AM 32.0 °F 27.5 °F 24.8 °F 75% 30.24 in 10.0 mi NNW 4.6 mph - N/A   Clear
3:10 AM 30.2 °F 25.4 °F 24.8 °F 80% 30.24 in 10.0 mi NNW 4.6 mph - N/A   Clear
3:50 AM 28.4 °F 24.6 °F 23.0 °F 80% 30.24 in 10.0 mi NNW 3.5 mph - N/A   Clear
4:10 AM 28.4 °F 21.2 °F 24.8 °F 86% 30.24 in 10.0 mi NNW 6.9 mph - N/A   Clear
4:30 AM 24.8 °F 17.9 °F 21.2 °F 86% 30.25 in 10.0 mi NW 5.8 mph - N/A   Clear
4:50 AM 24.8 °F 19.1 °F 21.2 °F 86% 30.25 in 10.0 mi NNW 4.6 mph - N/A   Clear
5:10 AM 24.8 °F 17.9 °F 23.0 °F 93% 30.26 in 10.0 mi NW 5.8 mph - N/A   Clear
5:30 AM 24.8 °F 17.9 °F 21.2 °F 86% 30.26 in 10.0 mi NNW 5.8 mph - N/A   Clear
5:50 AM 26.6 °F 19.1 °F 23.0 °F 86% 30.26 in 10.0 mi NNW 6.9 mph - N/A   Clear
6:10 AM 26.6 °F 21.2 °F 21.2 °F 80% 30.26 in 10.0 mi NNW 4.6 mph - N/A   Clear
6:30 AM 24.8 °F 20.5 °F 23.0 °F 93% 30.26 in 10.0 mi North 3.5 mph - N/A   Clear
6:50 AM 24.8 °F 20.5 °F 23.0 °F 93% 30.26 in 10.0 mi North 3.5 mph - N/A   Clear
7:10 AM 24.8 °F - 23.0 °F 93% 30.27 in 10.0 mi Calm Calm - N/A   Clear
7:30 AM 26.6 °F - 23.0 °F 86% 30.26 in 10.0 mi Calm Calm - N/A   Clear
7:50 AM 26.6 °F - 24.8 °F 93% 30.27 in 10.0 mi Calm Calm - N/A   Clear
8:10 AM 26.6 °F - 23.0 °F 86% 30.28 in 8.0 mi Calm Calm - N/A   Clear
8:30 AM 32.0 °F - 26.6 °F 80% 30.28 in 10.0 mi Calm Calm - N/A   Clear
8:50 AM 35.6 °F - 28.4 °F 75% 30.29 in 10.0 mi Calm Calm - N/A   Clear
9:10 AM 37.4 °F - 28.4 °F 70% 30.30 in 10.0 mi Calm Calm - N/A   Clear
9:30 AM 37.4 °F 33.8 °F 28.4 °F 70% 30.29 in 10.0 mi East 4.6 mph - N/A   Clear
9:50 AM 39.2 °F 35.0 °F 28.4 °F 65% 30.31 in 10.0 mi East 5.8 mph - N/A   Clear
10:10 AM 39.2 °F 35.9 °F 28.4 °F 65% 30.31 in 9.0 mi East 4.6 mph - N/A   Clear
10:30 AM 41.0 °F 38.0 °F 28.4 °F 61% 30.30 in 9.0 mi ESE 4.6 mph - N/A   Clear
10:50 AM 42.8 °F 39.3 °F 28.4 °F 57% 30.31 in 9.0 mi SE 5.8 mph - N/A   Clear
11:10 AM 42.8 °F 38.6 °F 30.2 °F 61% 30.30 in 10.0 mi ESE 6.9 mph - N/A   Clear
11:30 AM 44.6 °F 40.7 °F 28.4 °F 53% 30.29 in 10.0 mi ESE 6.9 mph - N/A   Clear
11:50 AM 46.4 °F 42.9 °F 28.4 °F 50% 30.30 in 10.0 mi SE 6.9 mph - N/A   Clear
12:10 PM 46.4 °F 41.5 °F 28.4 °F 50% 30.27 in 10.0 mi ESE 10.4 mph - N/A   Clear
12:30 PM 48.2 °F - 28.4 °F 46% 30.26 in 10.0 mi SE 11.5 mph - N/A   Clear
12:50 PM 48.2 °F - 28.4 °F 46% 30.27 in 10.0 mi SSE 9.2 mph 16.1 mph N/A   Clear
1:10 PM 48.2 °F - 28.4 °F 46% 30.25 in 10.0 mi SSE 12.7 mph - N/A   Clear
1:30 PM 50.0 °F - 28.4 °F 43% 30.24 in 10.0 mi SSE 12.7 mph - N/A   Clear
1:50 PM 50.0 °F - 26.6 °F 40% 30.23 in 10.0 mi SE 13.8 mph - N/A   Clear
2:10 PM 50.0 °F - 26.6 °F 40% 30.21 in 10.0 mi SE 13.8 mph - N/A   Clear
2:30 PM 50.0 °F - 26.6 °F 40% 30.20 in 10.0 mi SSE 12.7 mph - N/A   Clear
2:50 PM 51.8 °F - 26.6 °F 38% 30.18 in 10.0 mi SE 13.8 mph - N/A   Clear
3:10 PM 50.0 °F - 30.2 °F 47% 30.18 in 10.0 mi ESE 13.8 mph - N/A   Clear
3:30 PM 50.0 °F - 30.2 °F 47% 30.19 in 10.0 mi ESE 12.7 mph - N/A   Clear
3:50 PM 51.8 °F - 28.4 °F 41% 30.17 in 10.0 mi ESE 16.1 mph - N/A   Clear
4:10 PM 50.0 °F - 26.6 °F 40% 30.16 in 10.0 mi SE 13.8 mph - N/A   Clear
4:30 PM 51.8 °F - 24.8 °F 35% 30.17 in 10.0 mi SE 11.5 mph - N/A   Clear
4:50 PM 50.0 °F - 23.0 °F 35% 30.16 in 10.0 mi SE 16.1 mph - N/A   Clear
5:10 PM 48.2 °F - 23.0 °F 37% 30.15 in 10.0 mi SE 15.0 mph - N/A   Clear
5:30 PM 48.2 °F - 23.0 °F 37% 30.15 in 10.0 mi SE 11.5 mph - N/A   Clear
5:50 PM 46.4 °F 40.7 °F 24.8 °F 43% 30.13 in 10.0 mi SE 12.7 mph - N/A   Clear
6:10 PM 44.6 °F 38.4 °F 24.8 °F 46% 30.12 in 10.0 mi SE 12.7 mph - N/A   Clear
6:50 PM 41.0 °F 33.5 °F 26.6 °F 57% 30.13 in 10.0 mi SE 13.8 mph - N/A   Clear
7:10 PM 41.0 °F 33.5 °F 26.6 °F 57% 30.12 in 10.0 mi SE 13.8 mph - N/A   Mostly Cloudy
7:30 PM 39.2 °F 31.6 °F 26.6 °F 61% 30.12 in 10.0 mi SE 12.7 mph - N/A   Scattered Clouds
7:50 PM 39.2 °F 33.6 °F 26.6 °F 61% 30.12 in 10.0 mi SE 8.1 mph - N/A   Clear
8:10 PM 37.4 °F 30.8 °F 28.4 °F 70% 30.12 in 10.0 mi SE 9.2 mph - N/A   Clear
8:30 PM 37.4 °F 32.1 °F 28.4 °F 70% 30.12 in 10.0 mi SSE 6.9 mph - N/A   Clear
8:50 PM 37.4 °F 32.8 °F 28.4 °F 70% 30.12 in 10.0 mi SE 5.8 mph - N/A   Clear
9:10 PM 37.4 °F 31.4 °F 28.4 °F 70% 30.12 in 10.0 mi SE 8.1 mph - N/A   Clear
9:30 PM 37.4 °F 30.8 °F 28.4 °F 70% 30.12 in 9.0 mi SSE 9.2 mph - N/A   Clear
9:50 PM 37.4 °F 30.8 °F 28.4 °F 70% 30.13 in 9.0 mi SE 9.2 mph - N/A   Clear
10:10 PM 35.6 °F 30.7 °F 28.4 °F 75% 30.13 in 9.0 mi SSE 5.8 mph - N/A   Clear
10:30 PM 35.6 °F 29.2 °F 28.4 °F 75% 30.13 in 9.0 mi SSE 8.1 mph - N/A   Clear
10:50 PM 35.6 °F 28.6 °F 28.4 °F 75% 30.12 in 8.0 mi SE 9.2 mph - N/A   Clear
11:10 PM 35.6 °F 27.5 °F 28.4 °F 75% 30.12 in 7.0 mi SE 11.5 mph - N/A   Clear
11:30 PM 35.6 °F 27.5 °F 28.4 °F 75% 30.11 in 7.0 mi SE 11.5 mph - N/A   Clear
11:50 PM 35.6 °F 27.5 °F 28.4 °F 75% 30.11 in 7.0 mi SSE 11.5 mph - N/A   Clear